Weather History for Fort Simpson, NT

Change the Weather History Date:

Tuesday, December 25, 2012

  Actual Average Record
Temperature  
Mean Temperature -18 °F -  
Max Temperature -14 °F - - ()
Min Temperature -21 °F - - ()
Degree Days  
Heating Degree Days 82    
Moisture  
Dew Point -22 °F    
Average Humidity 75    
Maximum Humidity 79    
Minimum Humidity 60    
Precipitation  
Precipitation 0.28 in - - ()
Sea Level Pressure  
Sea Level Pressure 30.56 in    
Wind  
Wind Speed 8 mph ()    
Max Wind Speed 12 mph    
Max Gust Speed 18 mph    
T = Trace of Precipitation, MM = Missing Value Source: Averaged Metar Reports

Daily Weather History Graph

Daily Weather History Graph

Search for Another Location

Airport:

Trip Planner

Search our weather history database for the weather conditions in past years. The results will help you decide how hot, cold, wet, or windy it might be!

Date:

Astronomy

Dec. 25, 2012 Rise Set
Actual Time 10:27 AM MST 3:43 PM MST
Civil Twilight 9:22 AM MST 4:48 PM MST
Nautical Twilight 8:21 AM MST 5:49 PM MST
Astronomical Twilight 7:26 AM MST 6:44 PM MST
Moon 2:11 PM MST 7:46 AM MST
Length of Visible Light 7h 25m
Length of Day
5h 16m
Waxing Gibbous, 94% of the Moon is Illuminated
Dec 25
Waxing Gibbous
Dec 28
Full
Jan 4
Last Quarter
Jan 11
New
Jan 18
First Quarter

Hourly Weather History & Observations

Time (MST) Temp. Windchill Dew Point Humidity Pressure Visibility Wind Dir Wind Speed Gust Speed Precip Events Conditions
12:00 AM -16.1 °F -33.7 °F -21.5 °F 77% 30.74 in - SE 8.1 mph - N/A   Unknown
1:00 AM -16.2 °F -32.5 °F -21.5 °F 77% 30.73 in - SE 6.9 mph - N/A   Unknown
2:00 AM -15.5 °F -33.1 °F -20.9 °F 77% 30.71 in - SE 8.1 mph - N/A   Unknown
3:00 AM -15.2 °F -33.9 °F -20.6 °F 77% 30.71 in - SE 9.2 mph - N/A   Unknown
4:00 AM -14.6 °F -33.2 °F -19.8 °F 77% 30.69 in - SE 9.2 mph - N/A   Unknown
5:00 AM -15 °F - -20 °F 67% 30.67 in - SE 10.4 mph - -  
5:00 AM -14.6 °F -34.4 °F -19.8 °F 77% 30.67 in - SE 10.4 mph - N/A   Unknown
6:00 AM -15.5 °F -34.4 °F -20.7 °F 77% 30.66 in - ESE 9.2 mph - N/A   Unknown
7:00 AM -17.0 °F -36.1 °F -22.2 °F 77% 30.64 in - SE 9.2 mph - N/A   Unknown
8:00 AM -17.5 °F -36.8 °F -22.9 °F 76% 30.62 in - SE 9.2 mph - N/A   Unknown
9:00 AM -17.9 °F -37.2 °F -23.3 °F 76% 30.60 in - SE 9.2 mph - N/A   Unknown
10:00 AM -17.1 °F -37.5 °F -22.4 °F 77% 30.59 in - SE 10.4 mph - N/A   Unknown
11:00 AM -17 °F - -22 °F 67% 30.58 in - SE 11.5 mph - -  
11:00 AM -16.6 °F -37.9 °F -21.8 °F 77% 30.58 in - SE 11.5 mph 18.4 mph N/A   Unknown
12:00 PM -15.9 °F -34.8 °F -21.1 °F 77% 30.56 in - SE 9.2 mph - N/A   Unknown
1:00 PM -15.5 °F -33.1 °F -20.7 °F 77% 30.53 in - SE 8.1 mph - N/A   Unknown
2:00 PM -15.3 °F -35.3 °F -20.6 °F 77% 30.51 in - ESE 10.4 mph - N/A   Unknown
3:00 PM -14.6 °F -32.0 °F -19.8 °F 77% 30.49 in - ESE 8.1 mph - N/A   Unknown
4:00 PM -15.5 °F -31.6 °F -20.7 °F 77% 30.48 in - ESE 6.9 mph - N/A   Unknown
5:00 PM -15 °F - -20 °F 64% 30.47 in - SE 8.1 mph - -  
5:00 PM -15.3 °F -32.9 °F -20.4 °F 78% 30.47 in - SE 8.1 mph - N/A   Unknown
6:00 PM -15.0 °F -34.8 °F -20.0 °F 78% 30.45 in - SE 10.4 mph - N/A   Unknown
7:00 PM -15.2 °F -35.1 °F -20.0 °F 79% 30.45 in - SE 10.4 mph - N/A   Unknown
8:00 PM -16.2 °F -32.5 °F -21.3 °F 78% 30.44 in - ESE 6.9 mph - N/A   Unknown
9:00 PM -18.4 °F -36.6 °F -23.6 °F 77% 30.43 in - ESE 8.1 mph - N/A   Unknown
10:00 PM -20.2 °F -40.1 °F -25.4 °F 77% 30.42 in - SE 9.2 mph - N/A   Unknown
11:00 PM -21 °F - -27 °F 60% 30.41 in - SE 10.4 mph - -  
11:00 PM -21.5 °F -42.9 °F -26.9 °F 76% 30.41 in - SE 10.4 mph - N/A   Unknown